Regional Weather Roundup
Issued by NWS Jackson, KY

Home | Current Version | Previous Version | Graphics & Text | Print | Product List | Glossary On
Versions: 1 2 3 4 5 6 7 8 9 10 11 12 13 14 15 16 17 18 19 20 21 22 23 24 25 26 27 28 29 30 31 32 33 34 35 36 37 38 39 40 41 42 43 44 45 46 47 48 49 50
000
ASUS43 KJKL 311210
RWRJKL

EAST KENTUCKY HOURLY WEATHER ROUNDUP
NATIONAL WEATHER SERVICE JACKSON KY
800 AM EDT MON AUG 31 2015

NOTE: "FAIR" INDICATES FEW OR NO CLOUDS BELOW 12,000 FEET WITH
NO SIGNIFICANT WEATHER AND/OR OBSTRUCTIONS TO VISIBILITY.

* THESE REPORTS ARE NOT UNDER NWS QUALITY CONTROL AND MAY NOT
  REPORT WEATHER SUCH AS PRECIPITATION AND FOG.

KYZ079-080-083-085-087-088-110-112-115-119-120-311300
...EASTERN KENTUCKY...

CITY           SKY/WX    TMP DP  RH WIND       PRES   REMARKS
JACKSON        CLOUDY    66  65  96 CALM      30.16R FOG
6HR MIN TEMP:  65; 6HR MAX TEMP:  72;

LONDON         CLEAR     66  61  84 CALM      30.16R HAZE
6HR MIN TEMP:  65; 6HR MAX TEMP:  70;

SOMERSET*      FOG       64  64 100 CALM      30.16R VSB<1/4
MONTICELLO*    FOG       63  63 100 CALM      30.18R VSB 1/4
6HR MIN TEMP:  60; 6HR MAX TEMP:  64;

WILLIAMSBURG*  CLOUDY    63  63 100 CALM      30.16
MIDDLESBORO*   CLOUDY    62  62  98 CALM      30.17R FOG
6HR MIN TEMP:  61; 6HR MAX TEMP:  67;

HARLAN APT*      N/A     64  64 100 MISG      30.18R
HAZARD APT*    SUNNY     66  66 100 CALM      30.16R FOG
BLACK MTN*       N/A     61  57  88 NW1         N/A
PIKEVILLE APT* PTSUNNY   68  66  94 S3        30.16R
BIG SANDY*     MOSUNNY   69  67  96 CALM      30.15R
6HR MIN TEMP:  66; 6HR MAX TEMP:  69;

MOREHEAD APT*  FOG       64  64 100 CALM      30.16R VSB<1/4
$$

KYZ035-036-041-042-044-050-067-078-099-311300
...CENTRAL KENTUCKY...

CITY           SKY/WX    TMP DP  RH WIND       PRES   REMARKS
MT STERLING*   CLEAR     61  61 100 SW6       30.16R FOG
FLEMING/MASON* MOSUNNY   66  64  94 S3        30.15R
DANVILLE*      CLEAR     61  59  94 CALM      30.17R
RICHMOND*      CLEAR     63  61  94 CALM      30.14R
LEXINGTON      CLOUDY    68  65  90 CALM      30.15R
6HR MIN TEMP:  64; 6HR MAX TEMP:  70;

FRANKFORT      CLEAR     65  62  90 CALM      30.13R
6HR MIN TEMP:  63; 6HR MAX TEMP:  70;

$$

KYZ091>093-OHZ055-061-077-WVZ005-015-034-035-042-311300
...SOUTHERN OHIO/WEST VIRGINIA...

CITY           SKY/WX    TMP DP  RH WIND       PRES   REMARKS
COVINGTON      PTCLDY    67  65  93 SW3       30.13R
COLUMBUS       MOSUNNY   68  66  93 CALM      30.11R
DAYTON         PTCLDY    68  67  96 SW6       30.13R
WILMINGTON     SUNNY     66  64  93 SW5       30.13R FOG
HUNTINGTON     SUNNY     66  66 100 CALM      30.13R FOG
CHARLESTON     FOG       66  65  96 CALM      30.13R VSB 1
PINEVILLE*     CLOUDY    66  66 100 MISG      30.22R
BECKLEY        CLOUDY    65  61  87 CALM      30.20R
BLUEFIELD      LGT RAIN  66  59  78 SE3       30.23R
$$

VAZ002-007-008-TNZ017-027-036-066-071-311300
...SOUTHWEST VIRGINIA/EAST TENNESSEE...

CITY           SKY/WX    TMP DP  RH WIND       PRES   REMARKS
WISE*          MOSUNNY   63  63 100 CALM      30.22R
JONESVILLE*    PTSUNNY   64  63  94 CALM      30.19R
ABINGDON*      CLOUDY    66  63  89 CALM      30.19R
BRISTOL        PTSUNNY   66  64  93 CALM      30.17R
KNOXVILLE      PTCLDY    65  65 100 CALM      30.13R
OAK RIDGE      FOG       67  65  93 E3        30.16R VSB 3/4
CROSSVILLE     PTCLDY    64  61  90 CALM      30.18R FOG
NASHVILLE      PTCLDY    67  63  87 CALM      30.13R
$$

...KEY TO REMARKS...
VSB - VISIBILITY IN MILES
WCI - WIND CHILL INDEX
HX  - HEAT INDEX

$$


USA.gov is the U.S. government's official web portal to all federal, state and local government web resources and services.